• In Netherlands
  • List of Countries
  • For 7 days
  • Water Temperature
  • Satellite Maps
  • Weather Map
  • Weather Widgets
  • user-avatar
    Login

    Hourly Weather Uige

    Today, 20 September, Wednesday

    Time Temperature Precipitation Wind Pressure Humidity
    00:00 +24°C° 0 mm 2 mps 692 mmHg 74%
    01:00 +23°C° 0 mm 1 mps 692 mmHg 84%
    02:00 +23°C° 0 mm 1 mps 692 mmHg 85%
    03:00 +22°C° 0 mm 1 mps 691 mmHg 86%
    04:00 +22°C° 0 mm 1 mps 691 mmHg 88%
    05:00 +22°C° 0 mm 1 mps 692 mmHg 86%
    06:00 +23°C° 0 mm 2 mps 692 mmHg 83%
    07:00 +23°C° 0 mm 2 mps 692 mmHg 81%
    08:00 +27°C° 0 mm 1 mps 693 mmHg 67%
    09:00 +31°C° 0 mm 1 mps 693 mmHg 53%
    10:00 +34°C° 0 mm 1 mps 694 mmHg 39%
    11:00 +35°C° 0 mm 1 mps 693 mmHg 36%
    12:00 +36°C° 0 mm 1 mps 692 mmHg 33%
    13:00 +37°C° 0 mm 1 mps 692 mmHg 30%
    14:00 +36°C° 0 mm 1 mps 691 mmHg 31%
    15:00 +35°C° 0 mm 1 mps 690 mmHg 33%
    16:00 +34°C° 0 mm 1 mps 690 mmHg 35%
    17:00 +33°C° 0 mm 1 mps 690 mmHg 39%
    18:00 +31°C° 0 mm 1 mps 690 mmHg 44%
    19:00 +30°C° 0 mm 1 mps 690 mmHg 48%
    20:00 +29°C° 0.1 mm 2 mps 691 mmHg 54%
    21:00 +27°C° 0.1 mm 2 mps 692 mmHg 59%
    22:00 +26°C° 0.1 mm 2 mps 692 mmHg 64%
    23:00 +25°C° 0 mm 2 mps 692 mmHg 68%

    Tomorrow, 21 September, Thursday

    Time Temperature Precipitation Wind Pressure Humidity
    00:00 +24°C° 0 mm 2 mps 692 mmHg 73%
    01:00 +23°C° 0 mm 2 mps 691 mmHg 77%
    02:00 +23°C° 0 mm 2 mps 691 mmHg 80%
    03:00 +22°C° 0 mm 1 mps 691 mmHg 82%
    04:00 +22°C° 0 mm 1 mps 691 mmHg 85%
    05:00 +22°C° 0 mm 1 mps 691 mmHg 83%
    06:00 +21°C° 0 mm 2 mps 692 mmHg 81%
    07:00 +23°C° 0 mm 2 mps 692 mmHg 78%
    08:00 +26°C° 0 mm 2 mps 693 mmHg 66%
    09:00 +29°C° 0 mm 2 mps 693 mmHg 55%
    10:00 +32°C° 0 mm 2 mps 694 mmHg 43%
    11:00 +34°C° 0 mm 2 mps 693 mmHg 38%
    12:00 +36°C° 0 mm 2 mps 692 mmHg 34%
    13:00 +37°C° 0 mm 1 mps 692 mmHg 30%
    14:00 +36°C° 0.1 mm 2 mps 691 mmHg 34%
    15:00 +34°C° 0.1 mm 2 mps 690 mmHg 39%
    16:00 +31°C° 0.1 mm 2 mps 690 mmHg 43%
    17:00 +30°C° 0.1 mm 2 mps 690 mmHg 47%
    18:00 +29°C° 0.1 mm 2 mps 690 mmHg 51%
    19:00 +28°C° 0.1 mm 2 mps 691 mmHg 55%
    20:00 +27°C° 0 mm 2 mps 691 mmHg 59%
    21:00 +26°C° 0 mm 2 mps 692 mmHg 63%
    22:00 +25°C° 0 mm 2 mps 692 mmHg 67%
    23:00 +24°C° 0 mm 1 mps 692 mmHg 71%

    Day after tomorrow, 22 September, Friday

    Time Temperature Precipitation Wind Pressure Humidity
    00:00 +23°C° 0 mm 1 mps 692 mmHg 75%
    01:00 +23°C° 0 mm 1 mps 691 mmHg 78%
    02:00 +22°C° 0.1 mm 1 mps 691 mmHg 81%
    03:00 +22°C° 0.1 mm 1 mps 691 mmHg 84%
    04:00 +21°C° 0.1 mm 1 mps 690 mmHg 86%
    05:00 +21°C° 0 mm 1 mps 691 mmHg 85%
    06:00 +22°C° 0 mm 1 mps 691 mmHg 83%
    07:00 +21°C° 0 mm 2 mps 692 mmHg 81%
    08:00 +25°C° 0 mm 2 mps 692 mmHg 68%
    09:00 +28°C° 0 mm 2 mps 693 mmHg 54%
    10:00 +31°C° 0 mm 2 mps 694 mmHg 41%
    11:00 +34°C° 0 mm 2 mps 693 mmHg 36%
    12:00 +36°C° 0 mm 2 mps 692 mmHg 31%
    13:00 +37°C° 0 mm 1 mps 692 mmHg 27%
    14:00 +35°C° 0.4 mm 1 mps 691 mmHg 32%
    15:00 +33°C° 0.4 mm 1 mps 690 mmHg 38%
    16:00 +31°C° 0.4 mm 1 mps 689 mmHg 44%
    17:00 +30°C° 0.1 mm 1 mps 689 mmHg 47%
    18:00 +29°C° 0.1 mm 2 mps 690 mmHg 51%
    19:00 +27°C° 0.1 mm 2 mps 690 mmHg 55%
    20:00 +26°C° 0 mm 2 mps 691 mmHg 60%
    21:00 +25°C° 0 mm 2 mps 691 mmHg 64%
    22:00 +24°C° 0 mm 2 mps 692 mmHg 69%
    23:00 +23°C° 0.2 mm 2 mps 692 mmHg 73%

    23 September, Saturday

    Time Temperature Precipitation Wind Pressure Humidity
    00:00 +23°C° 0.2 mm 2 mps 691 mmHg 78%
    01:00 +22°C° 0.2 mm 1 mps 691 mmHg 82%
    02:00 +22°C° 0.4 mm 1 mps 691 mmHg 84%
    03:00 +20°C° 0.4 mm 2 mps 691 mmHg 86%
    04:00 +20°C° 0.4 mm 2 mps 690 mmHg 89%
    05:00 +20°C° 0 mm 2 mps 691 mmHg 88%
    06:00 +20°C° 0 mm 2 mps 691 mmHg 87%
    07:00 +20°C° 0 mm 2 mps 692 mmHg 86%
    08:00 +24°C° 0 mm 2 mps 692 mmHg 73%
    09:00 +27°C° 0 mm 2 mps 693 mmHg 61%
    10:00 +30°C° 0 mm 2 mps 693 mmHg 49%
    11:00 +32°C° 0 mm 2 mps 693 mmHg 43%
    12:00 +35°C° 0 mm 2 mps 692 mmHg 38%
    13:00 +37°C° 0 mm 2 mps 691 mmHg 32%
    14:00 +35°C° 0.1 mm 2 mps 691 mmHg 35%
    15:00 +34°C° 0.1 mm 2 mps 690 mmHg 38%
    16:00 +32°C° 0.1 mm 2 mps 690 mmHg 41%
    17:00 +30°C° 0.5 mm 2 mps 690 mmHg 47%
    18:00 +29°C° 0.5 mm 2 mps 691 mmHg 54%
    19:00 +27°C° 0.5 mm 3 mps 691 mmHg 60%
    20:00 +26°C° 0.1 mm 3 mps 692 mmHg 65%
    21:00 +25°C° 0.1 mm 2 mps 692 mmHg 70%
    22:00 +24°C° 0.1 mm 2 mps 692 mmHg 75%
    23:00 +23°C° 1.3 mm 2 mps 692 mmHg 79%

    24 September, Sunday

    Time Temperature Precipitation Wind Pressure Humidity
    00:00 +22°C° 1.3 mm 3 mps 692 mmHg 83%
    01:00 +21°C° 1.3 mm 3 mps 692 mmHg 87%
    02:00 +21°C° 0.2 mm 3 mps 692 mmHg 87%
    03:00 +20°C° 0.2 mm 3 mps 692 mmHg 86%
    04:00 +20°C° 0.2 mm 3 mps 691 mmHg 86%
    05:00 +20°C° 0 mm 3 mps 692 mmHg 85%
    06:00 +20°C° 0 mm 2 mps 693 mmHg 84%
    07:00 +20°C° 0 mm 2 mps 693 mmHg 83%
    08:00 +23°C° 0 mm 2 mps 693 mmHg 77%
    09:00 +24°C° 0 mm 2 mps 693 mmHg 71%
    10:00 +25°C° 0 mm 2 mps 694 mmHg 64%
    11:00 +27°C° 0 mm 2 mps 693 mmHg 56%
    12:00 +30°C° 0 mm 2 mps 692 mmHg 48%
    13:00 +32°C° 0 mm 2 mps 692 mmHg 40%
    14:00 +32°C° 0 mm 2 mps 691 mmHg 39%
    15:00 +32°C° 0 mm 2 mps 691 mmHg 38%
    16:00 +32°C° 0 mm 2 mps 690 mmHg 37%
    17:00 +30°C° 0 mm 2 mps 690 mmHg 43%
    18:00 +29°C° 0 mm 2 mps 691 mmHg 48%
    19:00 +27°C° 0 mm 2 mps 691 mmHg 53%
    20:00 +26°C° 0 mm 2 mps 691 mmHg 57%
    21:00 +25°C° 0 mm 2 mps 691 mmHg 62%
    22:00 +24°C° 0 mm 2 mps 691 mmHg 66%
    23:00 +23°C° 0 mm 2 mps 691 mmHg 70%

    25 September, Monday

    Time Temperature Precipitation Wind Pressure Humidity
    00:00 +23°C° 0 mm 2 mps 691 mmHg 75%
    01:00 +22°C° 0 mm 1 mps 691 mmHg 79%
    02:00 +21°C° 0 mm 2 mps 691 mmHg 80%
    03:00 +21°C° 0 mm 2 mps 691 mmHg 82%
    04:00 +20°C° 0 mm 2 mps 691 mmHg 83%
    05:00 +20°C° 0 mm 2 mps 691 mmHg 82%
    06:00 +20°C° 0 mm 2 mps 691 mmHg 81%
    07:00 +20°C° 0 mm 2 mps 692 mmHg 80%
    08:00 +24°C° 0 mm 2 mps 692 mmHg 69%
    09:00 +26°C° 0 mm 2 mps 692 mmHg 58%
    10:00 +29°C° 0 mm 2 mps 693 mmHg 47%
    11:00 +31°C° 0 mm 2 mps 692 mmHg 42%
    12:00 +34°C° 0 mm 2 mps 691 mmHg 36%
    13:00 +36°C° 0 mm 2 mps 691 mmHg 31%
    14:00 +35°C° 0 mm 2 mps 690 mmHg 32%
    15:00 +35°C° 0 mm 2 mps 690 mmHg 32%
    16:00 +34°C° 0 mm 2 mps 689 mmHg 33%
    17:00 +32°C° 0 mm 2 mps 689 mmHg 37%
    18:00 +30°C° 0 mm 2 mps 689 mmHg 41%
    19:00 +29°C° 0 mm 2 mps 690 mmHg 45%
    20:00 +28°C° 0 mm 2 mps 690 mmHg 51%
    21:00 +26°C° 0 mm 2 mps 690 mmHg 57%
    22:00 +25°C° 0 mm 2 mps 690 mmHg 63%
    23:00 +24°C° 0 mm 2 mps 690 mmHg 68%
    Show more